User: anonymous   Login
Location: Unspecified
(0.0000°N, 0.0000°E)
Time: 21:15:25
(UTC+02:00)
Language:

Cosmos 1933 - Orbit

View from above orbital plane
View from above orbital plane
View from above satellite
View from above satellite

Ground track
Ground track

The orbit data is extracted from the following two-line orbital elements,

1 18958U 88020A   16149.95378064 +.00000301 +00000-0 +20246-4 0  9994
2 18958 082.5287 114.5117 0012721 142.4294 217.7823 15.02907595512645
Epoch (UTC): 28 May 2016 22:53:26
Eccentricity: 0.0012721
inclination: 82.5287°
perigee height: 549 km
apogee height: 567 km
right ascension of ascending node: 114.5117°
argument of perigee: 142.4294°
revolutions per day: 15.02907595
mean anomaly at epoch: 217.7823°
orbit number at epoch: 51264

The dashed part of the orbit path shows where the satellite is in the earth's shadow,  

DLR